Time[GMT],current_u[cm/s](10m),current_v[cm/s](10m),current_u[cm/s](14m),current_v[cm/s](14m),current_u[cm/s](18m),current_v[cm/s](18m),current_u[cm/s](22m),current_v[cm/s](22m),current_u[cm/s](26m),current_v[cm/s](26m),current_u[cm/s](30m),current_v[cm/s](30m),current_u[cm/s](34m),current_v[cm/s](34m),current_u[cm/s](38m),current_v[cm/s](38m),current_u[cm/s](42m),current_v[cm/s](42m),current_u[cm/s](46m),current_v[cm/s](46m),current_u[cm/s](50m),current_v[cm/s](50m),current_u[cm/s](54m),current_v[cm/s](54m)
2002-10-02 21:00,-9.07,3.90,-3.57,2.91,-3.57,1.87,-4.58,-1.45,-3.82,-5.09,-3.76,-4.23,-3.24,-3.14,-1.02,-2.91,-1.02,-2.91,-3.31,-5.04,-5.35,-7.31,-5.03,-7.00
2002-10-02 22:00,-9.82,19.21,-5.75,12.80,-3.96,9.57,-3.14,7.83,-3.35,4.64,-2.59,2.05,-2.65,1.93,-0.40,1.34,2.03,0.91,2.73,0.28,0.39,-2.39,1.01,-4.50
2002-10-02 23:00,-0.52,12.04,-2.85,6.15,-2.75,2.63,-1.68,3.57,-1.86,2.06,-0.80,1.64,-3.64,-0.03,-4.83,5.77,-10.20,13.05,-9.58,14.48,-5.66,7.19,-6.17,-4.53
2002-10-03 00:00,5.77,3.05,-0.78,-0.54,-0.41,-0.02,-4.62,0.83,-8.81,0.53,-9.57,-0.42,-7.50,-0.02,-11.21,-1.22,-11.17,-4.54,-11.45,-5.35,-11.11,-3.69,-10.81,-5.06
2002-10-03 01:00,12.13,1.28,3.85,1.45,5.38,0.13,3.62,0.44,2.46,1.56,-2.09,3.55,-3.09,0.24,-4.95,-3.02,-10.26,-3.75,-9.94,-1.99,-9.64,-1.59,-8.61,-0.87
2002-10-03 02:00,16.95,-7.31,7.98,-5.16,8.98,-8.20,11.86,-7.35,6.39,-4.37,1.22,-2.04,-2.48,-2.92,-6.23,-5.38,-6.73,-4.06,-7.41,-3.85,-7.12,-4.49,-6.83,-5.14
2002-10-03 03:00,10.86,-13.17,6.42,-8.01,6.90,-8.92,8.63,-7.36,8.09,-3.77,4.53,-0.86,-0.05,-2.31,-2.56,-4.40,-3.23,-5.33,-1.42,-3.34,-1.55,-0.04,-3.56,0.41
2002-10-03 04:00,5.98,-12.52,7.15,-4.46,5.95,-6.07,7.15,-7.28,8.17,-3.33,4.26,-0.31,-0.37,3.75,-2.96,4.03,-1.16,3.93,-1.68,3.57,-2.89,2.38,-0.54,3.59
2002-10-03 05:00,2.09,-7.10,4.74,-1.94,5.69,-3.75,7.15,-3.73,9.88,-3.45,7.21,-0.07,2.71,3.19,1.26,5.27,0.67,3.74,4.41,5.57,7.17,5.76,5.48,5.47
2002-10-03 06:00,0.01,-2.50,4.24,-0.94,3.89,-0.83,7.29,-0.67,10.41,-1.00,5.19,0.80,3.21,5.74,5.69,7.93,6.66,6.76,3.58,6.26,4.86,8.62,3.09,5.08
2002-10-03 07:00,-3.26,1.86,1.55,0.04,0.81,1.49,5.05,2.32,7.49,0.75,5.90,0.49,4.61,-0.42,4.66,4.71,6.59,2.77,3.28,5.86,3.83,5.40,1.30,5.49
2002-10-03 08:00,-5.86,8.59,-0.91,2.75,2.11,5.94,2.80,4.99,3.22,3.24,2.47,2.60,0.43,2.42,3.18,4.79,3.34,6.72,5.09,6.08,4.34,3.67,1.29,5.90
2002-10-03 09:00,-9.63,17.49,-4.15,7.01,-1.01,7.31,2.22,6.28,3.35,5.26,0.98,3.41,3.17,1.98,4.65,4.39,9.34,8.27,6.56,2.87,4.49,-0.03,2.71,-0.35
2002-10-03 10:00,-5.04,13.94,-4.86,6.60,-3.40,9.42,-2.11,11.05,-6.67,10.96,-8.29,7.26,-5.09,4.55,-2.90,3.11,8.24,0.34,11.27,3.84,4.17,2.48,1.74,-2.72
2002-10-03 11:00,0.32,18.75,-0.07,5.92,-1.22,3.08,-0.58,0.56,-0.00,1.77,-1.61,-0.89,-2.96,-4.10,-5.67,-4.48,-5.66,-5.21,-3.10,-7.17,-1.95,-6.83,-3.55,-9.18
2002-10-03 12:00,7.23,1.29,2.66,-0.89,2.54,-1.55,2.62,-0.06,1.51,-1.22,-1.51,-4.09,-1.82,-4.08,-0.69,-0.83,-1.64,0.25,-4.93,-5.93,-5.55,-10.18,-7.55,-12.96
2002-10-03 13:00,9.28,-1.44,1.11,-4.47,7.67,-0.56,8.91,0.54,3.25,0.64,2.39,1.43,2.16,1.89,-0.71,-0.42,-2.15,-0.84,-2.58,-3.26,-3.01,-4.64,-4.63,-3.03
2002-10-03 14:00,12.34,-12.53,2.69,-12.34,9.16,-10.23,8.82,-9.08,3.22,-8.12,1.13,-5.61,-0.12,-5.25,-1.99,-7.78,-5.78,-10.46,-7.42,-11.25,-8.31,-8.60,-7.29,-5.69
2002-10-03 15:00,13.21,-17.27,5.79,-12.58,11.69,-9.28,13.07,-8.98,7.26,-8.39,2.92,-4.25,0.28,-3.78,-1.35,-6.76,-3.68,-8.38,-2.92,-6.38,1.02,-4.18,4.05,-2.77
2002-10-03 16:00,10.98,-16.78,6.54,-10.17,15.49,-8.37,19.75,-6.18,18.16,-4.66,13.61,-2.67,9.20,-0.11,3.94,0.43,1.66,0.38,5.69,0.84,7.84,0.64,7.74,2.38
2002-10-03 17:00,-1.80,-17.62,3.29,-15.08,7.80,-16.57,9.49,-15.24,12.16,-12.99,10.87,-9.31,8.29,-5.48,4.61,-3.96,3.92,-5.52,5.66,-5.42,4.85,-3.37,4.42,-2.97
2002-10-03 18:00,-10.21,-4.98,0.53,-7.45,3.11,-7.01,3.51,-5.54,7.04,-3.03,7.40,-1.05,3.65,0.34,0.90,2.25,-0.27,4.09,-0.47,5.49,0.19,4.33,0.24,3.09
2002-10-03 19:00,-9.34,6.22,2.12,-3.65,11.45,-8.10,13.00,-6.28,13.12,-3.12,15.68,-1.22,17.16,0.15,14.94,0.23,11.00,2.30,10.79,4.43,10.92,5.40,10.74,3.16
2002-10-03 20:00,-20.25,14.26,-11.64,6.27,5.27,-9.40,12.74,-12.82,15.50,-10.87,16.22,-8.36,15.95,-4.27,15.22,-1.77,10.98,-4.38,9.78,-3.48,10.02,-2.16,8.77,-4.30
2002-10-03 21:00,-6.97,20.15,-4.68,9.88,1.85,-6.65,4.35,-11.23,7.47,-11.56,9.15,-8.77,9.50,-5.02,9.50,-2.52,6.50,-4.03,4.89,-3.88,4.71,-1.84,3.75,-2.13
2002-10-03 22:00,-3.94,32.51,-3.57,14.27,-7.62,3.59,-5.19,-7.16,-5.26,-10.82,-4.42,-12.97,-1.41,-11.15,-1.78,-11.68,-0.96,-11.96,-0.04,-11.90,0.08,-11.96,0.40,-10.20
2002-10-03 23:00,4.79,19.86,0.96,5.60,-4.65,-0.85,-7.30,-6.01,-8.78,-8.42,-8.64,-10.67,-4.09,-11.94,-1.35,-10.30,-3.16,-8.75,-13.71,-5.49,-15.39,8.71,-6.59,9.63
2002-10-04 00:00,4.72,0.97,-3.50,-6.87,-7.30,-4.96,-10.00,-5.34,-13.38,-9.78,-13.52,-11.80,-9.66,-11.81,-5.75,-12.33,-4.08,-13.40,0.02,-10.00,-5.98,-4.47,-4.23,-5.83
2002-10-04 01:00,13.39,-6.17,3.12,-10.24,-1.04,-12.40,-4.37,-11.71,-6.73,-7.61,-7.30,-6.01,-8.93,-8.99,-9.02,-13.29,-4.65,-12.52,-5.71,-10.33,-5.49,-7.56,-5.25,-8.01
2002-10-04 02:00,14.13,-10.12,3.56,-5.73,1.28,-9.32,1.36,-8.88,0.50,-4.54,-2.65,-5.16,-6.26,-7.06,-5.83,-10.99,-1.97,-11.00,-2.08,-9.58,0.32,-7.83,0.77,-4.05
2002-10-04 03:00,11.90,-19.54,2.10,-13.14,-0.23,-15.50,1.19,-13.62,-1.51,-7.64,-6.00,-8.65,-6.23,-10.70,-6.49,-12.65,-7.54,-12.64,-6.12,-11.08,-4.21,-11.56,-1.69,-10.92
2002-10-04 04:00,16.80,-20.60,4.58,-10.95,0.87,-7.56,-1.07,-5.94,1.80,-6.46,4.36,-3.83,-1.88,-3.16,-2.79,-3.63,-2.86,-1.99,-3.42,-2.88,-2.64,-2.03,0.02,-2.18
2002-10-04 05:00,16.12,-19.34,6.41,-7.60,-2.59,-6.08,-7.84,-2.41,-6.21,-1.20,-1.60,-0.58,-1.56,1.42,-6.00,1.26,-4.79,1.40,-4.93,4.70,-5.47,3.71,-3.03,2.13
2002-10-04 06:00,7.15,-25.00,-4.77,-10.37,-4.56,-2.91,-0.55,1.51,1.54,1.50,6.25,2.15,7.03,4.47,4.01,3.37,4.13,2.26,3.85,2.49,3.44,0.70,3.22,-1.03
2002-10-04 07:00,2.28,-16.95,-2.47,-5.42,2.19,3.88,7.55,4.10,9.73,4.84,13.32,3.61,17.89,4.74,12.40,3.55,10.33,2.10,12.01,3.12,10.71,-1.33,8.58,-2.58
2002-10-04 08:00,-5.95,-5.29,-2.90,5.61,2.81,9.58,4.40,6.30,6.20,7.98,9.23,7.61,13.20,6.49,14.56,4.70,9.72,2.76,9.00,1.29,8.72,-0.25,7.18,-1.01
2002-10-04 09:00,-16.72,5.82,-8.26,14.25,1.01,14.99,3.48,11.55,4.90,7.07,7.45,7.61,10.00,8.16,10.23,3.84,5.06,1.59,2.79,0.09,1.34,0.40,0.36,-2.29
2002-10-04 10:00,-11.36,14.17,-1.14,17.70,5.72,14.92,7.37,9.67,7.77,8.65,9.02,6.20,8.44,2.48,4.16,1.43,3.69,-4.02,3.34,-5.69,-0.07,-3.67,-0.49,-1.19
2002-10-04 11:00,-12.65,15.35,-3.23,14.16,4.39,12.34,5.81,6.82,5.21,3.20,4.55,-0.22,2.59,-3.83,0.03,-4.37,-3.54,-4.27,-5.12,-4.22,-5.83,-3.91,-5.84,-1.41
2002-10-04 12:00,-14.62,14.98,-9.58,9.17,-4.41,6.83,1.22,1.51,1.98,-4.94,-0.99,-9.05,-4.22,-11.87,-6.72,-12.92,-7.57,-10.77,-7.76,-7.29,-7.87,-6.90,-8.11,-8.22
2002-10-04 13:00,3.49,10.82,7.17,6.80,10.60,-2.72,9.74,-10.06,6.29,-12.53,1.59,-10.37,-0.39,-10.02,2.02,-8.27,1.99,-4.63,2.79,-3.45,3.51,-2.72,3.57,-3.64
2002-10-04 14:00,10.99,-5.11,6.17,-5.38,3.42,-12.34,1.63,-13.70,-0.14,-15.47,-2.84,-15.85,-6.43,-12.52,-6.78,-11.69,-7.14,-9.40,-5.32,-8.13,-5.80,-10.05,-7.04,-10.10
2002-10-04 15:00,25.34,-18.08,14.35,-12.98,11.18,-15.68,10.90,-20.04,6.12,-19.36,5.97,-13.57,4.55,-10.86,3.73,-9.85,4.12,-7.96,7.00,-8.57,6.47,-9.25,5.08,-10.18
2002-10-04 16:00,17.50,-13.41,10.18,-10.87,6.15,-14.87,5.89,-17.55,5.03,-13.53,6.37,-8.55,5.01,-6.03,4.35,-4.87,4.45,-2.03,4.01,-1.95,3.32,-2.78,3.10,-3.46
2002-10-04 17:00,12.65,-1.18,6.58,-3.59,3.77,-11.40,3.55,-9.59,5.14,-5.78,7.44,-2.61,7.59,-2.77,5.32,-1.77,5.43,-2.15,4.26,-1.35,2.92,0.34,3.81,-0.55
2002-10-04 18:00,8.92,-4.46,2.63,-6.11,-1.44,-8.56,-5.39,-6.49,-6.29,-4.14,-2.13,-1.25,-0.37,-2.30,-0.39,-2.20,0.31,-2.10,1.16,-1.12,1.17,-0.07,0.71,0.42
2002-10-04 19:00,19.52,-0.09,11.86,-4.54,7.53,-7.17,4.16,-4.93,2.83,-0.42,7.65,-0.15,10.68,-1.23,9.85,-1.58,11.75,1.16,13.49,3.03,11.21,4.76,10.19,4.35
2002-10-04 20:00,13.23,3.58,2.13,0.21,1.87,-2.47,0.29,1.13,2.22,5.55,5.03,5.23,6.64,3.31,7.08,2.50,8.50,5.11,9.16,4.99,7.36,5.81,7.18,6.07
2002-10-04 21:00,12.25,4.44,2.38,1.85,-3.55,-1.04,-3.75,3.17,0.69,4.37,4.35,3.99,5.90,1.21,4.91,1.03,5.80,1.91,8.08,1.96,7.71,3.21,6.24,3.61
2002-10-04 22:00,9.05,0.79,0.08,-1.33,-8.06,-3.42,-10.42,1.41,-4.77,0.99,0.69,-1.99,5.95,-6.07,7.38,-7.00,8.55,-4.26,9.51,-5.75,9.00,-6.84,8.14,-6.05
2002-10-04 23:00,1.47,-1.44,-6.54,6.62,-11.34,11.26,-9.67,9.14,-5.55,2.22,-4.82,-3.82,-5.98,-6.24,-5.68,-4.80,-9.34,1.63,-12.86,-8.37,-11.82,-3.06,-9.73,0.47
2002-10-05 00:00,2.66,5.47,0.03,6.26,-8.11,7.00,-10.45,14.96,-7.28,15.16,-0.76,3.63,1.74,-1.68,3.86,-7.10,4.47,-10.57,3.25,-11.03,1.14,-10.61,1.21,-12.26
2002-10-05 01:00,13.63,-0.26,10.65,7.72,7.53,13.37,4.27,7.09,3.81,1.23,0.36,-3.34,-2.61,-3.89,-2.69,-3.61,-2.96,-4.10,-2.22,-4.51,-1.72,-4.78,1.21,-1.63
2002-10-05 02:00,7.12,-7.91,5.82,-2.77,8.56,-1.44,6.60,-2.96,-1.67,-8.83,-4.58,-11.36,-7.06,-10.00,-6.88,-10.26,-6.43,-10.02,-8.72,-12.16,-9.90,-13.13,-10.94,-11.35
2002-10-05 03:00,21.55,-13.36,15.96,-10.31,9.70,-9.24,7.65,-12.55,1.92,-12.88,-1.72,-10.10,-3.41,-9.66,-1.04,-10.63,-0.87,-10.16,-3.07,-10.81,-2.95,-10.88,-4.08,-7.04
2002-10-05 04:00,22.12,-19.55,19.25,-17.58,9.15,-15.86,8.70,-16.10,3.01,-14.12,0.08,-11.96,1.44,-10.21,0.67,-7.93,-0.74,-8.45,0.05,-9.37,-0.47,-9.73,-0.44,-8.78
2002-10-05 05:00,24.53,-12.17,21.85,-15.46,14.62,-16.75,11.37,-15.62,9.70,-13.82,9.57,-11.26,7.12,-9.68,5.26,-7.94,3.63,-5.60,3.99,-6.12,4.85,-6.91,1.82,-8.32
2002-10-05 06:00,15.71,-3.09,14.67,-9.13,6.81,-10.40,2.45,-9.39,1.85,-6.65,-0.25,-1.64,-2.96,2.98,-2.14,6.56,-2.89,8.74,-2.98,7.98,-3.16,6.47,-3.74,7.03
2002-10-05 07:00,14.34,0.15,18.58,-7.87,10.80,-12.25,9.00,-15.70,3.62,-16.55,2.05,-11.91,4.23,-8.35,5.28,-4.49,7.42,-0.42,7.99,1.20,8.31,2.24,7.65,-1.19
2002-10-05 08:00,11.79,13.79,14.54,8.34,4.16,-1.38,3.93,-5.93,3.01,-10.58,3.16,-6.47,5.27,-2.31,7.60,1.82,10.52,4.97,10.30,7.51,10.21,6.76,9.95,4.80
2002-10-05 09:00,16.83,11.52,16.01,7.94,4.57,-5.95,4.41,-12.15,2.97,-13.62,3.84,-10.23,4.52,-10.03,7.96,-4.74,11.69,-2.19,10.91,-2.00,3.84,-3.14,8.04,-0.03
2002-10-05 10:00,12.47,17.12,6.74,8.97,-5.24,-2.38,-10.26,-3.75,-9.76,3.07,-8.44,2.83,-7.85,-0.96,-6.28,0.44,-1.18,1.53,2.64,2.03,2.00,2.05,0.55,1.31
2002-10-05 11:00,5.88,17.57,11.59,11.96,-7.21,-0.66,-15.08,-4.02,-12.71,1.05,-13.52,1.65,-12.62,0.04,-11.43,-1.18,-8.40,-2.26,-6.86,-5.04,0.33,-9.28,-1.66,-9.24
2002-10-05 12:00,7.12,25.76,4.53,22.50,1.46,16.28,-5.08,10.18,-12.53,0.79,-13.66,-1.41,-6.90,-2.76,-1.84,-4.71,-1.19,-5.87,-0.53,-8.81,1.50,-12.17,3.25,-17.08
2002-10-05 13:00,17.99,22.81,16.71,14.40,1.31,11.12,-8.60,11.86,-10.32,9.57,-7.35,5.13,-1.26,1.82,-1.24,0.68,-2.01,0.45,-3.39,-3.71,-6.63,-7.58,-8.90,-10.85
2002-10-05 14:00,20.77,4.86,11.26,2.48,-0.70,9.80,-8.30,8.71,-9.23,3.75,-3.92,-0.84,-3.43,-1.11,-6.85,3.09,-7.41,4.28,-8.32,2.76,-11.51,-2.34,-12.61,-7.46
2002-10-05 15:00,25.66,-3.60,13.57,0.66,1.65,2.88,-0.42,-2.11,-4.14,-0.80,-6.28,2.22,-6.24,4.21,-4.87,3.78,-6.65,2.42,-8.06,-2.37,-9.45,-8.62,-13.68,-12.68
2002-10-05 16:00,27.02,-9.98,13.92,-5.49,0.98,0.91,-1.20,-1.60,-1.22,0.27,0.95,2.78,1.49,2.73,0.08,3.26,-3.67,1.84,-9.50,-2.07,-15.07,-5.48,-17.02,-6.26
2002-10-05 17:00,28.77,-21.24,16.65,-10.53,6.57,-5.68,2.59,-6.33,2.71,-2.12,3.28,-1.95,1.29,-1.91,-1.16,-2.43,-2.44,-3.74,-3.16,-5.20,-2.93,-5.97,-1.22,-5.05
2002-10-05 18:00,19.51,-23.44,17.15,-13.30,9.48,-8.47,7.64,-8.59,6.73,-5.52,5.42,-4.97,2.87,-5.51,0.71,-6.67,0.79,-7.27,2.38,-9.51,2.41,-12.43,3.19,-14.38
2002-10-05 19:00,12.97,-10.78,14.05,-6.29,16.84,2.98,14.59,3.56,13.11,2.19,13.42,5.41,10.92,5.40,9.76,6.52,9.34,5.46,9.66,2.95,9.77,2.56,7.41,4.58
2002-10-05 20:00,4.61,-9.28,11.39,-5.40,13.62,0.47,11.46,1.81,8.83,0.83,8.68,3.81,9.86,8.64,8.18,9.39,8.20,6.48,7.70,6.43,7.85,8.04,6.61,8.72
2002-10-05 21:00,-1.96,-7.87,8.44,-2.10,12.09,-5.30,12.56,-6.21,9.90,-3.55,8.62,-3.09,10.34,0.65,10.03,0.97,9.23,0.53,10.50,0.80,10.77,1.29,8.82,1.55
2002-10-05 22:00,-23.03,1.04,-3.72,-0.47,-8.43,-2.17,-12.71,-2.49,-12.38,0.63,-12.05,3.75,-10.66,3.64,-8.93,3.42,-9.44,2.33,-11.86,0.99,-11.87,2.45,-11.48,1.83
2002-10-05 23:00,-14.36,17.98,4.93,8.75,6.48,9.52,2.47,7.19,2.75,6.96,2.86,10.12,2.58,7.53,3.39,5.48,1.26,5.27,1.23,2.55,1.46,4.60,0.59,5.07
2002-10-06 00:00,-15.10,11.30,-3.10,6.28,-2.14,1.25,-3.91,-2.30,-2.76,-1.96,-1.90,1.84,-1.40,-0.20,0.62,-2.11,0.20,-1.40,-2.40,-4.25,-3.92,-6.16,-4.18,-6.34
2002-10-06 01:00,-30.77,10.33,-24.01,11.80,-18.96,7.76,-12.33,2.21,-2.77,-5.82,-0.01,-11.99,0.47,-14.35,3.45,-14.20,4.94,-15.02,4.28,-18.44,2.85,-19.59,-0.92,-21.33
2002-10-06 02:00,0.20,25.18,4.93,15.84,5.12,7.03,6.57,1.41,9.75,-3.38,8.87,-6.77,10.29,-7.71,10.42,-6.00,7.28,-7.03,5.15,-10.06,5.41,-10.60,1.58,-11.73
2002-10-06 03:00,7.86,12.95,7.09,1.05,2.87,-3.74,0.70,-6.26,-4.64,-5.12,-1.72,-3.01,-1.21,-0.15,-3.35,-2.44,-5.85,-7.04,-7.89,-8.26,-10.63,-10.63,-13.67,-13.41
2002-10-06 04:00,13.80,3.75,7.51,-6.03,4.05,-9.86,2.09,-8.87,-0.77,-4.81,-3.28,-1.59,-6.18,-2.03,-9.18,-2.81,-7.97,-5.16,-6.84,-6.50,-6.06,-9.50,-8.57,-10.55
2002-10-06 05:00,20.34,2.44,7.66,-6.19,4.87,-9.82,4.83,-8.27,2.70,-3.17,-2.12,0.11,-2.05,-2.59,-1.29,-4.13,-2.67,-7.56,-5.31,-11.36,-7.24,-9.74,-7.81,-4.28
2002-10-06 06:00,24.41,-5.74,11.49,-7.88,3.84,-7.73,3.30,-5.18,5.15,-3.70,3.59,-2.28,-2.55,3.00,-3.47,0.44,-5.89,-4.44,-6.24,-6.42,-4.60,-4.90,-3.06,-0.59
2002-10-06 07:00,23.26,-8.90,10.75,-7.47,4.54,-4.08,7.58,-3.09,7.38,-1.69,5.02,3.14,3.25,5.96,1.06,1.35,-2.40,1.07,-3.88,1.15,-0.84,3.19,3.45,7.06
2002-10-06 08:00,19.32,-4.01,7.94,-7.15,7.35,1.95,9.18,1.76,9.90,0.72,7.79,3.65,7.19,7.43,3.88,7.71,2.10,9.17,2.56,9.72,4.83,10.49,6.98,12.06
2002-10-06 09:00,15.20,-2.41,1.77,-4.59,5.19,5.38,10.03,7.02,14.45,5.82,11.63,10.41,10.49,17.47,10.53,21.24,11.33,20.64,8.41,19.26,7.68,20.29,9.30,16.91
2002-10-06 10:00,-21.53,-12.90,-22.49,-13.19,-16.03,-10.35,-7.45,-6.57,-0.34,1.15,4.08,5.27,8.07,4.46,9.26,5.02,7.99,7.56,9.21,9.07,10.88,8.73,7.55,2.33
2002-10-06 11:00,-11.26,1.79,-12.11,3.94,-6.33,3.45,-5.46,9.34,-3.62,13.01,-0.83,10.60,3.64,8.16,6.42,9.71,6.03,9.28,6.13,8.58,6.67,7.07,4.85,4.76
2002-10-06 12:00,-24.41,3.24,-20.28,3.73,-15.25,4.37,-11.51,6.52,-8.81,8.67,-7.72,4.61,-5.98,-0.93,-2.67,-2.97,1.00,-2.00,1.68,-3.57,0.42,-6.75,-0.09,-6.07
2002-10-06 13:00,-22.41,14.15,-18.98,16.31,-14.31,14.97,-6.86,10.91,-1.53,7.68,2.09,2.81,1.59,-4.33,-1.27,-7.36,0.92,-7.03,6.62,-6.18,6.59,-7.86,5.26,-9.71
2002-10-06 14:00,-14.84,-1.66,-6.82,-6.59,-2.29,-7.45,-1.31,-11.12,-0.34,-14.07,-4.60,-15.53,-6.52,-14.32,-5.14,-13.71,-1.78,-14.49,-2.24,-15.05,-6.99,-15.92,-8.51,-19.60
2002-10-06 15:00,2.20,9.51,0.26,3.72,8.04,5.28,9.09,5.59,7.88,0.13,2.05,-0.96,1.05,-0.73,3.35,-1.10,3.84,-3.14,5.40,-3.83,5.00,-5.30,2.66,-6.93
2002-10-06 16:00,8.80,2.69,5.46,-2.25,10.84,-3.17,9.71,-4.65,6.81,-3.31,2.66,-2.66,1.40,-1.57,2.96,-2.98,2.30,-5.68,-0.82,-7.85,-3.49,-10.10,-3.86,-8.85
2002-10-06 17:00,11.90,1.00,9.53,-6.89,14.35,-11.93,12.60,-9.53,6.92,-10.06,5.38,-8.01,4.17,-5.65,0.57,-7.23,-2.22,-5.55,-2.33,-2.35,-1.55,-0.77,-1.25,-0.37
2002-10-06 18:00,1.52,-4.45,1.92,-8.30,7.07,-19.08,6.22,-19.02,1.02,-14.81,1.32,-13.68,0.17,-8.71,-3.06,-6.95,-7.70,-3.93,-8.92,-1.58,-11.30,-3.74,-11.68,-5.31
2002-10-06 19:00,14.37,-5.26,10.80,-9.43,13.32,-16.20,8.88,-18.13,7.16,-19.37,9.53,-13.98,9.27,-10.61,9.72,-9.65,5.18,-6.61,5.62,-1.37,5.72,-2.07,6.59,-5.04
2002-10-06 20:00,16.13,-11.93,10.44,-11.73,9.05,-15.16,5.92,-14.10,2.52,-14.58,3.17,-11.47,6.62,-6.18,7.86,-4.04,7.91,0.04,9.27,1.79,9.44,1.22,9.39,-1.09
2002-10-06 21:00,8.34,-3.90,6.29,-5.44,7.32,-8.58,5.53,-9.21,2.89,-8.74,5.34,-6.45,7.29,-4.21,10.41,0.77,8.35,4.23,9.08,1.73,8.70,1.62,9.19,2.08
2002-10-06 22:00,-0.93,13.80,-1.70,8.26,-3.40,4.11,-1.19,1.21,2.16,0.11,4.54,-0.54,6.81,-1.54,9.46,-1.70,13.57,0.66,13.19,3.36,13.68,2.05,15.29,0.12
2002-10-06 23:00,1.79,27.21,-0.23,19.22,-1.99,12.44,-3.14,8.56,-3.53,5.63,-1.02,0.64,-0.11,1.43,2.39,2.16,9.81,-1.80,12.50,-4.56,9.81,-1.80,8.13,-0.00
2002-10-07 00:00,1.27,25.81,-4.42,18.92,-8.20,13.33,-11.06,9.25,-9.70,3.19,-6.30,-1.96,-4.35,-1.17,-2.60,-1.81,0.29,-4.19,1.34,-4.19,-1.17,-5.24,-3.81,-4.77
2002-10-07 01:00,10.68,28.89,5.54,22.27,-1.12,16.56,-7.70,5.97,-5.30,0.32,-0.34,-0.62,1.61,-0.88,1.23,-5.58,-0.21,-6.73,-4.64,-7.62,-7.72,-8.11,-7.73,-7.38
2002-10-07 02:00,19.19,5.65,5.45,2.02,-4.50,5.03,-5.85,3.59,-1.81,-0.95,-0.94,-1.42,-4.27,-1.78,-5.80,-4.73,-7.23,-7.65,-7.62,-7.04,-5.50,-3.29,-4.81,-2.77
2002-10-07 03:00,14.81,4.57,3.98,-0.08,-0.93,-0.38,-3.12,-3.21,-2.61,-5.67,-5.57,-6.23,-10.65,-4.18,-11.40,-3.77,-9.96,-1.58,-5.50,2.76,-4.54,4.08,-2.78,3.77
2002-10-07 04:00,8.88,-11.04,-2.66,-3.70,-7.08,2.81,-7.51,3.21,-5.85,0.05,-6.49,-7.33,-11.35,-7.82,-14.96,-6.18,-11.88,-5.68,-8.07,-3.73,-5.81,-2.23,-4.62,-3.44
2002-10-07 05:00,5.46,-18.20,-5.20,-3.93,-4.93,-1.66,-1.87,-6.39,-0.38,-9.70,-3.05,-10.90,-8.77,-11.65,-11.90,-11.63,-11.67,-8.86,-6.71,-8.02,-4.56,-8.95,-6.96,-7.88
2002-10-07 06:00,10.35,-19.57,0.21,-2.13,2.62,-1.11,3.39,-7.97,3.64,-10.60,-0.77,-7.31,-6.00,-5.83,-5.13,-4.53,-1.26,-4.23,0.15,-5.48,1.52,-5.18,1.08,-6.15
2002-10-07 07:00,17.53,-18.82,9.39,-2.87,11.77,-3.52,9.38,-11.31,6.44,-11.24,2.48,-7.71,-0.22,-4.55,0.03,-2.60,5.03,-2.58,7.53,-2.58,10.18,-3.05,10.01,-2.48
2002-10-07 08:00,7.34,-17.85,6.93,-7.24,10.60,-4.49,8.17,-4.37,3.68,-5.07,1.04,-1.78,-0.85,1.83,-1.08,4.37,-2.11,2.92,3.19,1.56,6.24,0.06,4.86,-0.24
2002-10-07 09:00,-2.76,-1.96,-5.37,-0.54,-1.56,-2.86,6.86,-2.05,12.00,2.07,9.94,2.72,10.71,3.99,12.08,6.79,13.79,12.29,17.36,10.43,18.45,5.33,15.99,1.27
2002-10-07 10:00,-8.35,4.63,-9.39,4.64,-9.28,-2.11,1.07,-2.92,9.44,-2.33,8.59,0.55,9.27,4.29,12.31,5.29,10.93,10.31,11.41,10.45,13.32,7.15,11.60,4.14
2002-10-07 11:00,-11.68,11.36,-12.51,17.37,-7.33,5.77,0.12,-1.84,6.73,-4.80,10.19,-5.24,8.96,-1.74,8.03,-1.08,13.12,1.46,13.23,1.08,11.33,0.10,9.28,-2.48
2002-10-07 12:00,-8.76,18.79,-5.01,20.21,-0.59,10.15,4.69,-0.70,5.36,-5.09,5.80,-6.95,6.21,-4.11,7.32,0.28,9.64,0.54,9.22,-0.52,7.84,-2.90,6.53,-4.12
2002-10-07 13:00,-14.36,30.38,-14.09,30.88,-12.42,26.26,-7.91,22.27,2.18,9.61,12.38,-5.95,16.23,-11.59,17.71,-10.94,17.06,-10.51,19.06,-11.28,19.43,-13.25,16.11,-16.84
2002-10-07 14:00,-3.82,32.44,-3.72,29.66,-10.00,15.20,-9.65,4.46,-3.71,-4.74,-1.20,-7.96,-0.88,-7.97,-0.48,-8.27,-1.13,-7.84,-3.02,-6.73,-7.72,-7.07,-12.88,-7.96
2002-10-07 15:00,6.97,11.02,2.13,1.25,0.26,-9.72,-0.64,-13.43,-1.85,-15.66,-4.13,-16.43,-5.30,-15.63,-8.94,-15.66,-11.07,-16.92,-12.03,-17.93,-15.13,-15.19,-15.89,-10.83
2002-10-07 16:00,10.46,-0.47,2.52,-0.41,-0.67,-7.29,0.66,-10.75,-0.71,-13.87,-1.44,-13.87,-5.25,-14.05,-11.77,-14.20,-14.91,-13.46,-14.17,-11.36,-15.03,-8.07,-14.44,-4.77
2002-10-07 17:00,21.51,-13.58,9.98,-9.47,6.40,-10.42,4.55,-12.63,2.07,-13.77,-4.09,-15.49,-6.41,-18.25,-7.27,-17.46,-9.39,-14.13,-7.07,-9.27,-4.60,-6.67,-0.99,-6.55
2002-10-07 18:00,18.37,-12.84,5.76,-11.44,3.02,-11.31,0.72,-7.40,-4.42,-7.66,-8.26,-11.60,-9.39,-12.35,-9.26,-10.33,-7.35,-4.77,-2.66,-3.70,1.36,-5.33,0.39,-4.16
2002-10-07 19:00,26.33,-17.58,7.13,-10.41,1.94,-7.66,-0.37,-10.43,-0.39,-8.24,-4.42,-5.89,-6.03,-5.73,-6.18,-5.57,-1.35,-2.48,4.28,1.05,7.63,0.99,3.58,2.72
2002-10-07 20:00,20.82,-15.14,6.12,-6.64,-1.60,-4.85,-2.94,-6.29,-3.96,-2.83,-6.94,1.61,-9.16,3.14,-5.81,3.09,-2.42,6.79,1.91,9.11,2.37,10.71,2.18,11.38
2002-10-07 21:00,20.31,-19.77,13.07,-11.48,5.95,-4.29,3.02,-4.95,1.80,-2.91,1.16,-0.39,4.36,3.26,9.46,5.39,10.48,7.25,12.04,8.34,13.44,8.54,11.93,7.99
2002-10-07 22:00,8.21,-13.74,4.96,-5.52,-1.27,0.77,-3.67,1.84,-1.94,2.35,-0.88,6.52,2.23,10.14,4.74,10.46,8.21,11.07,10.01,12.02,9.09,12.68,8.16,8.76
2002-10-07 23:00,-1.96,-10.69,-2.08,-4.26,-5.28,4.49,-6.85,4.14,-5.72,1.03,-1.73,4.81,0.04,10.85,-0.15,12.57,3.69,10.47,4.24,11.46,3.80,9.77,3.24,5.64
2002-10-08 00:00,-13.59,-4.83,-6.67,2.83,-4.91,7.83,-2.84,10.01,-0.90,8.39,-0.74,4.99,3.44,8.52,4.54,12.91,4.68,11.38,6.26,9.56,6.07,5.23,4.91,2.80
2002-10-08 01:00,-15.97,1.14,-12.88,9.76,-7.63,11.41,-2.16,13.02,1.79,13.76,3.37,7.66,8.22,4.30,9.58,6.05,6.08,10.86,5.54,11.64,3.93,6.47,3.85,0.72
2002-10-08 02:00,-19.59,10.60,-15.42,14.85,-11.48,18.82,-4.44,12.97,-0.67,11.48,4.72,10.88,5.86,4.54,8.61,0.87,12.07,0.43,12.78,2.62,10.00,0.02,6.50,-2.26
2002-10-08 03:00,-9.64,13.63,-0.05,11.87,1.14,7.11,4.55,3.32,7.60,-1.73,5.58,-5.86,1.67,-9.20,3.09,-11.91,4.29,-12.81,6.14,-13.41,4.22,-12.21,-0.52,-12.77
2002-10-08 04:00,10.13,9.86,16.44,8.59,16.70,-0.09,17.51,-4.96,16.61,-7.20,14.81,-7.11,13.01,-7.01,12.74,-10.01,9.88,-13.04,8.48,-16.06,4.17,-15.24,-3.54,-15.95
2002-10-08 05:00,24.69,6.43,20.71,1.19,17.18,-5.26,16.99,-8.13,15.45,-12.13,14.88,-11.26,12.57,-10.48,9.32,-11.12,6.57,-13.81,4.43,-14.33,3.32,-11.64,0.41,-9.89
2002-10-08 06:00,18.78,-7.50,15.01,-6.01,10.61,-11.26,10.15,-17.13,7.23,-15.70,4.60,-11.36,2.01,-10.36,-2.93,-12.02,-8.65,-16.31,-12.04,-16.47,-12.85,-13.37,-13.79,-10.52
2002-10-08 07:00,27.33,-7.49,22.48,-9.44,17.45,-9.35,13.57,-10.70,9.42,-11.09,6.13,-9.14,1.50,-6.86,-1.75,-7.50,-3.07,-5.49,-1.42,-5.11,-0.55,-0.27,1.68,2.79
2002-10-08 08:00,24.89,-13.73,17.54,-13.91,14.14,-12.62,12.31,-10.66,7.41,-9.60,4.27,-8.13,0.63,-7.11,-0.61,-2.16,2.22,2.01,7.48,4.70,5.38,5.44,4.88,6.44
2002-10-08 09:00,21.06,-6.73,15.81,-8.38,15.51,-7.01,13.57,-3.61,8.47,-0.43,6.71,0.93,4.91,4.57,4.85,10.08,6.46,15.24,6.85,15.67,6.16,14.84,6.14,14.21
2002-10-08 10:00,9.92,-9.28,13.09,-8.34,12.98,-7.96,10.31,-6.35,5.49,-2.35,6.03,0.42,5.17,6.52,4.48,11.33,7.76,11.87,10.99,11.89,10.01,7.43,9.12,5.50
2002-10-08 11:00,-5.20,-5.70,1.07,-3.65,5.10,-3.50,3.62,-3.10,2.14,-3.02,1.59,2.76,0.99,7.27,2.98,10.78,8.10,11.45,11.53,13.61,9.38,14.54,7.75,13.33
2002-10-08 12:00,-9.42,-2.35,-2.36,-1.53,3.77,1.01,4.88,3.62,1.85,0.44,3.74,1.83,5.41,5.35,5.03,8.05,6.51,7.65,8.69,8.71,5.90,11.12,3.43,12.06
2002-10-08 13:00,-6.75,14.07,-4.98,5.94,-3.92,3.75,-1.79,3.96,0.48,5.46,3.36,8.08,3.78,9.45,5.62,7.81,5.94,6.75,2.28,6.41,2.40,2.48,-0.28,3.78
2002-10-08 14:00,-4.41,15.69,-4.69,4.25,-3.89,3.65,-2.56,0.91,1.31,-0.55,5.64,1.03,9.71,1.71,10.91,0.81,9.39,-1.09,6.92,-1.92,4.00,0.24,2.66,-0.89
2002-10-08 15:00,-5.27,22.53,-2.80,14.81,-2.98,8.71,-2.50,6.35,1.90,-0.80,6.85,-4.86,10.24,-7.52,11.37,-9.58,11.14,-11.63,10.62,-11.99,9.10,-11.08,7.33,-8.27
2002-10-08 16:00,11.22,11.12,6.33,0.82,3.15,-1.16,4.06,-1.41,9.43,-3.69,9.78,-5.25,6.68,-7.83,7.45,-9.38,7.14,-11.14,3.09,-11.91,-1.02,-13.54,-2.97,-13.28
2002-10-08 17:00,16.84,2.98,5.78,-2.99,5.43,-2.15,7.22,-5.07,7.60,-7.77,6.78,-8.53,5.36,-5.82,2.64,-2.25,-3.13,-7.07,-6.67,-12.39,-9.25,-16.38,-10.53,-16.65
2002-10-08 18:00,22.30,-6.36,9.74,-9.02,5.96,-5.02,5.98,-6.16,6.81,-8.63,6.44,-8.42,6.62,-6.91,5.44,-6.43,0.20,-8.49,-3.54,-8.86,-5.00,-8.87,-7.82,-9.91
2002-10-08 19:00,21.93,-9.70,8.69,-8.28,5.74,-6.75,6.08,-7.91,9.36,-11.63,8.78,-11.07,5.70,-12.29,4.32,-11.13,-0.51,-6.41,-2.12,-5.21,-4.21,-5.51,-4.40,-8.07
2002-10-08 20:00,17.82,-14.87,9.44,-12.96,11.68,-14.91,10.44,-15.27,7.97,-14.33,5.76,-9.67,5.56,-10.04,2.98,-7.98,1.03,-4.91,-1.40,-1.25,-4.80,-0.68,-4.26,-1.46
2002-10-08 21:00,23.11,-16.55,15.28,-12.60,16.48,-13.50,13.99,-12.46,10.92,-9.82,8.49,-5.84,7.47,-3.43,5.66,-0.11,4.44,4.75,2.89,6.48,3.75,7.46,5.78,5.14
2002-10-08 22:00,18.13,-11.66,9.48,-4.92,14.41,-3.99,15.15,-5.44,8.65,-4.23,4.86,-0.24,5.57,2.68,7.29,3.92,6.98,8.52,8.64,13.49,8.23,14.20,7.70,11.02
2002-10-08 23:00,0.19,-8.08,-0.61,-6.43,-1.14,-3.57,8.14,-2.50,8.48,-3.66,7.28,-4.53,6.30,-1.58,7.00,7.38,10.51,9.97,11.76,15.66,14.14,17.82,12.51,14.52
2002-10-09 00:00,-4.89,-3.21,-4.93,-0.62,0.71,2.19,4.31,0.95,3.62,-0.60,5.95,-0.02,4.48,3.19,4.26,10.32,7.60,13.49,10.12,15.90,13.28,14.75,9.32,10.14
2002-10-09 01:00,-15.14,5.03,-12.31,7.11,-10.26,9.70,-1.96,0.99,2.85,-4.37,3.02,-1.40,4.46,-0.98,7.66,-1.60,7.66,1.94,9.81,7.06,11.91,7.36,9.56,3.65
2002-10-09 02:00,-24.79,17.30,-22.14,17.15,-18.96,19.44,-11.09,21.75,-3.02,16.62,2.34,2.67,10.04,-5.07,13.76,-1.79,15.12,2.47,15.31,0.75,17.26,-0.55,19.48,0.42
2002-10-09 03:00,-7.22,29.15,-7.37,22.22,-3.10,17.96,-5.11,7.46,-5.60,0.96,1.28,-4.00,6.07,-5.41,5.97,-4.71,6.36,-5.32,6.37,-4.28,5.19,-1.70,3.24,-3.22